TimeMDT,TemperatureF,Dew PointF,Humidity,Sea Level PressureIn,VisibilityMPH,Wind Direction,Wind SpeedMPH,Gust SpeedMPH,PrecipitationIn,Events,Conditions,WindDirDegrees,DateUTC
12:53 AM,-9999,-9999,N/A,30.18,-9999.0,North,-9999.0,-,N/A,,Unknown,0,2013-10-24 06:53:00
1:53 AM,-9999,-9999,N/A,30.18,-9999.0,North,-9999.0,-,N/A,,Unknown,0,2013-10-24 07:53:00
2:53 AM,-9999,-9999,N/A,30.19,-9999.0,North,-9999.0,-,N/A,,Unknown,0,2013-10-24 08:53:00
3:53 AM,-9999,-9999,N/A,30.19,-9999.0,North,-9999.0,-,N/A,,Unknown,0,2013-10-24 09:53:00
4:53 AM,-9999,-9999,N/A,30.19,-9999.0,North,-9999.0,-,N/A,,Unknown,0,2013-10-24 10:53:00
5:53 AM,-9999,-9999,N/A,30.19,-9999.0,North,-9999.0,-,N/A,,Unknown,0,2013-10-24 11:53:00
6:53 AM,-9999,-9999,N/A,30.20,-9999.0,North,-9999.0,-,N/A,,Unknown,0,2013-10-24 12:53:00
11:24 AM,46.4,28.4,50,30.22,2.5,Calm,Calm,-,N/A,,Haze,0,2013-10-24 17:24:00
11:33 AM,46.4,28.4,50,30.22,10.0,Calm,Calm,-,N/A,,Unknown,0,2013-10-24 17:33:00
12:53 PM,57.0,30.9,37,30.19,10.0,Calm,Calm,-,N/A,,Clear,0,2013-10-24 18:53:00
1:53 PM,62.1,28.0,28,30.16,10.0,Calm,Calm,-,N/A,,Clear,0,2013-10-24 19:53:00
2:53 PM,64.0,25.0,23,30.14,10.0,SW,3.5,-,N/A,,Clear,230,2013-10-24 20:53:00
3:53 PM,66.0,24.1,20,30.13,10.0,Variable,3.5,-,N/A,,Clear,0,2013-10-24 21:53:00
4:53 PM,66.0,21.0,18,30.13,10.0,Calm,Calm,-,N/A,,Clear,0,2013-10-24 22:53:00
5:53 PM,64.9,23.0,20,30.13,10.0,Calm,Calm,-,N/A,,Clear,0,2013-10-24 23:53:00
6:53 PM,54.0,27.0,35,30.13,10.0,Calm,Calm,-,N/A,,Clear,0,2013-10-25 00:53:00
7:53 PM,48.0,30.9,52,30.14,10.0,Calm,Calm,-,N/A,,Clear,0,2013-10-25 01:53:00
8:53 PM,43.0,28.0,56,30.15,10.0,ENE,3.5,-,N/A,,Clear,70,2013-10-25 02:53:00
9:53 PM,39.9,26.1,58,30.17,10.0,ENE,3.5,-,N/A,,Clear,70,2013-10-25 03:53:00
10:53 PM,37.9,25.0,60,30.18,10.0,NE,3.5,-,N/A,,Clear,50,2013-10-25 04:53:00
11:53 PM,34.0,25.0,70,30.20,10.0,NE,3.5,-,N/A,,Clear,50,2013-10-25 05:53:00